Location: Houston
(29.7631°N, 95.3631°W)
Time: 06:53:45
(UTC-05:00)

ISS - Visible Passes

Search period start: 22 June 2021 00:00
Search period end: 02 July 2021 00:00
Orbit: 417 x 422 km, 51.6° (Epoch: 22 June)

Date Brightness Start Highest point End Pass type
(mag) Time Alt. Az. Time Alt. Az. Time Alt. Az.
22 Jun -2.6 05:39:55 10° SSW 05:43:02 37° SE 05:46:10 10° ENE visible
23 Jun -1.6 04:54:10 14° SSE 04:55:42 19° SE 04:58:09 10° E visible
24 Jun -3.3 05:41:48 11° WSW 05:44:51 49° NW 05:48:07 10° NNE visible
25 Jun -3.8 04:56:22 42° SSW 04:57:23 80° SE 05:00:45 10° NE visible
26 Jun -2.2 04:10:52 31° E 04:10:52 31° E 04:13:08 10° ENE visible
26 Jun -1.5 05:44:45 10° WNW 05:46:54 16° NW 05:49:03 10° N visible
27 Jun -2.2 04:58:16 22° WNW 04:59:18 26° NW 05:02:12 10° NNE visible
28 Jun -2.5 04:12:37 38° N 04:12:37 38° N 04:15:03 10° NNE visible
29 Jun -0.7 03:26:55 16° NE 03:26:55 16° NE 03:27:41 10° NE visible
30 Jun -1.3 04:14:07 16° NNW 04:14:07 16° NNW 04:15:57 10° N visible
01 Jul -0.7 03:28:19 15° N 03:28:19 15° N 03:29:06 10° NNE visible
